Regional Weather Roundup
Issued by NWS Green Bay, WI

Home | Current Version | Previous Version | Text Only | Print | Product List | Glossary On
Versions: 1 2 3 4 5 6 7 8 9 10 11 12 13 14 15 16 17 18 19 20 21 22 23 24 25 26 27 28 29 30 31 32 33 34 35 36 37 38 39 40 41 42 43 44 45 46 47 48 49 50
000
ASUS43 KGRB 282110
RWRGRB

NORTH-CENTRAL AND NORTHEAST WISCONSIN REGIONAL WEATHER ROUNDUP
NATIONAL WEATHER SERVICE GREEN BAY WI
400 PM CDT SAT MAR 28 2015

WIZ005-009-010>012-018-019-282200-
NORTH CENTRAL WISCONSIN

CITY           SKY/WX    TMP DP  RH WIND       PRES   REMARKS
IRONWOOD       SUNNY     41  10  28 S10G16    30.06F
MANITOWISH WTR SUNNY     39   9  28 SW15G21   30.10F
ARBOR VITAE    SUNNY     40  10  29 SW8       30.10F
EAGLE RIVER    SUNNY     38   6  26 SW9G18    30.10F
LAND O LAKES   SUNNY     39   3  21 SW9G17    30.11F
RHINELANDER    SUNNY     39   9  29 SW10G20   30.13F
PHILLIPS       SUNNY     38   9  29 SW12G17   30.12F
ANTIGO         SUNNY     36  13  39 SW12G20   30.16F
TOMAHAWK       SUNNY     38  10  31 CALM      30.15F
MERRILL        SUNNY     39  13  34 SW9       30.17S
$$

WIZ013-073-282200-
NORTHEAST WISCONSIN

CITY           SKY/WX    TMP DP  RH WIND       PRES   REMARKS
IRON MOUNTAIN  SUNNY     40   8  26 S12       30.13F
MARINETTE      SUNNY     36  16  44 S12       30.22F
OCONTO         SUNNY     37  17  44 S10       30.22F
$$

WIZ017-030-035>037-045-282200-
CENTRAL WISCONSIN

CITY           SKY/WX    TMP DP  RH WIND       PRES   REMARKS
MEDFORD        SUNNY     36  14  40 S10       30.15F
WAUSAU         SUNNY     39   9  29 SW12      30.16F
MOSINEE        SUNNY     37  10  32 S12G20    30.19F
MARSHFIELD     SUNNY     42   8  24 S13       30.17F
WISC RAPIDS    SUNNY     41   3  20 SW12      30.21F
STEVENS POINT  SUNNY     39   8  28 SW10      30.19F
WAUPACA        SUNNY     44   4  19 S7        30.21F
SHAWANO        SUNNY     41  12  30 SW5       30.21F
CLINTONVILLE   SUNNY     41  10  28 SW12G17   30.21F
$$

WIZ038-039-048-051-282200-
FOX VALLEY

CITY           SKY/WX    TMP DP  RH WIND       PRES   REMARKS
NWS GREEN BAY  SUNNY     37  19  48 SW10G18   30.24F
APPLETON       SUNNY     37  10  32 S14       30.23F
OSHKOSH        SUNNY     39  11  31 S9G22     30.24F
FOND DU LAC    SUNNY     39   7  26 W9        30.24F
$$

WIZ022-050-052-282200-
EAST CENTRAL WISCONSIN

CITY           SKY/WX    TMP DP  RH WIND       PRES   REMARKS
STURGEON BAY   MOSUNNY   34  21  60 S12G17    30.26F
MANITOWOC      SUNNY     33  24  69 S16       30.27F
SHEBOYGAN      SUNNY     35  21  56 S15       30.26F
$$

LMZ563-521-522-541>543-282200-
LAKESHORE

STATION/POSITION TIME  TEMP    WIND        PRES    VSBY  WAVE
                       AIR SEA DIR/SP/G                  HT/PER
                 (UTC) (F)     (DEG/KT/KT) (MB)    (MI)  (FT/S)
SHEBOYGAN LKSHOR 2100   29     150/ 16/ 17 1026.4F
KEWAUNEE LKSHORE 2100   29     170/ 16/ 18 1023.9F
NORTHPORT PIER   2100   30     170/  9/ 14 1024.4S
STURGEON BAY CG  2100   30     180/ 12     1025.3      6   2
CHAMBERS ISLAND  2100   34     180/  7/ 15 1024.4S
MENOMINEE LKSHOR 2100   33     170/ 12     1024.2F
$$


USA.gov is the U.S. government's official web portal to all federal, state and local government web resources and services.